Location: Mabank
(32.3664°N, 96.1006°W)
Time: 17:35:11
(UTC-06:00)

N. Korean satellite - Visible Passes

Search period start: 12 December 2017 00:00
Search period end: 22 December 2017 00:00
Orbit: 461 x 513 km, 97.2° (Epoch: 11 December)

Date Brightness Start Highest point End Pass type
(mag) Time Alt. Az. Time Alt. Az. Time Alt. Az.
12 Dec 8.0 17:43:36 10° ESE 17:46:16 19° ENE 17:48:58 10° NNE visible
12 Dec 9.4 19:16:55 10° SW 19:19:37 19° W 19:22:22 10° NW visible
13 Dec 7.9 06:47:48 10° NNE 06:51:22 46° E 06:54:51 10° S visible
13 Dec 8.0 18:52:30 10° S 18:55:59 40° W 18:59:32 10° NNW visible
14 Dec 9.5 06:24:52 10° NE 06:27:45 21° E 06:30:34 10° SSE visible
14 Dec 6.5 18:28:45 10° SSE 18:32:25 87° ENE 18:36:10 10° N visible
15 Dec 10.4 06:03:33 10° E 06:04:03 10° E 06:04:32 10° E visible
15 Dec 7.1 18:05:30 10° SE 18:08:56 39° ENE 18:12:26 10° N visible
16 Dec 8.0 17:42:51 10° ESE 17:45:32 19° ENE 17:48:14 10° NNE visible
16 Dec 9.4 19:16:06 10° SW 19:18:52 20° W 19:21:40 10° NW visible
17 Dec 7.9 06:47:05 10° NNE 06:50:37 45° E 06:54:04 10° S visible
17 Dec 8.0 18:51:43 10° S 18:55:14 41° W 18:58:48 10° NNW visible
18 Dec 9.5 06:24:09 10° NE 06:26:58 21° E 06:29:44 10° SSE visible
18 Dec 6.6 18:27:57 10° SSE 18:31:39 86° E 18:35:25 10° N visible
19 Dec 7.1 18:04:42 10° SE 18:08:10 38° ENE 18:11:40 10° N visible
20 Dec 9.4 19:15:16 10° SW 19:18:05 20° W 19:20:55 10° NW visible
21 Dec 8.0 06:46:19 10° NNE 06:49:47 44° E 06:53:12 10° S visible
21 Dec 8.0 18:50:54 10° S 18:54:25 42° W 18:58:01 10° NNW visible
